Content
SEND FEEDBACK

Daily
Averages
Monthly
Summary
United States of America

AGANA, GUAM


Home > North America > United States > Guam
Elevation: 246 feet     Latitude: 13 29N     Longitude: 144 48E

WEATHER
 
SELECT A DAY
Number of Records: 214,775;   Date Range: 1/1/95 - 11/21/14
 
SHARE

PRINT THIS DATA

[ ← Previous Day ]
WEATHER ALMANAC - JUNE 15, 2013
[ Next Day → ]
[ °C ]   °F
Weather ElementAverageHighLow
Temperature86.2 °F90 °F (12:54 pm)82.9 °F (1:54 am)
Dewpoint75.3 °F77 °F (1:54 am)73 °F (7:54 pm)
Humidity70.3 %82 % (1:54 am)61 % (12:54 pm)
Barometer29.82 in29.86 in (9:50 am)29.77 in (3:54 pm)
Wind Speed10.1 mph16.1 mph (3:54 pm)
Wind Gust21.9 mph (12:54 pm)
Weather ElementAverage
Visibility10 mi
Wind DirectionE (88.9 °)

Weather ElementTotal
Precipitation---
Cooling Degree Days21.5 (Base 65)
Growing Degree Days36.5 (Base 50)
Averaged from 27 records on June 15, 2013
WEATHER CONDITIONS BREAKOUT
WIND DIRECTION BREAKOUT
WEATHER BY HOUR - JUNE 15, 2013
[ °C ]   °F
Local TimeTemperatureDewpointHumidityBarometerVisibilityWind DirectionWind SpeedGust SpeedPrecipitationEventsConditions
1:54 AM82.9 °F77.0 °F82 %29.80 in10.0 miEast (90°)5.8 mphScattered Clouds
2:54 AM82.9 °F77.0 °F82 %29.79 in10.0 miEast (90°)4.6 mphPartly Cloudy
3:54 AM82.9 °F77.0 °F82 %29.79 in10.0 miEast (90°)4.6 mph0.00 inPartly Cloudy
4:54 AM82.9 °F77.0 °F82 %29.80 in10.0 miEast (90°)4.6 mphPartly Cloudy
5:54 AM82.9 °F77.0 °F82 %29.81 in10.0 miEast (80°)6.9 mphPartly Cloudy
6:54 AM84.0 °F77.0 °F79 %29.83 in10.0 miEast (80°)6.9 mphClear
7:54 AM86.0 °F75.9 °F72 %29.83 in10.0 miEast (80°)12.7 mphMostly Cloudy
8:54 AM87.1 °F75.9 °F69 %29.84 in10.0 miEast (80°)15.0 mphPartly Cloudy
9:50 AM87.8 °F75.2 °F66 %29.86 in10.0 miEast (90°)12.7 mphMostly Cloudy
9:54 AM88.0 °F75.9 °F67 %29.83 in10.0 miEast (90°)13.8 mphMostly Cloudy
10:30 AM87.8 °F75.2 °F66 %29.85 in10.0 miEast (100°)12.7 mphScattered Clouds
10:54 AM89.1 °F75.0 °F63 %29.82 in10.0 miEast (90°)15.0 mphScattered Clouds
11:54 AM89.1 °F75.0 °F63 %29.81 in10.0 miEast (90°)12.7 mphScattered Clouds
12:54 PM90.0 °F75.0 °F61 %29.81 in10.0 miEast (100°)11.5 mph21.9 mphScattered Clouds
1:54 PM90.0 °F75.0 °F61 %29.79 in10.0 miESE (110°)9.2 mph19.6 mphScattered Clouds
2:54 PM89.1 °F75.0 °F63 %29.79 in10.0 miEast (90°)12.7 mph18.4 mphMostly Cloudy
3:13 PM87.8 °F75.2 °F66 %29.81 in10.0 miESE (110°)12.7 mphMostly Cloudy
3:23 PM89.6 °F75.2 °F62 %29.80 in10.0 miEast (90°)11.5 mphScattered Clouds
3:54 PM89.1 °F75.0 °F63 %29.77 in10.0 miENE (70°)16.1 mphScattered Clouds
4:54 PM88.0 °F73.9 °F63 %29.78 in10.0 miEast (80°)11.5 mphPartly Cloudy
5:54 PM88.0 °F73.9 °F63 %29.79 in10.0 miEast (90°)11.5 mphPartly Cloudy
6:54 PM84.9 °F73.9 °F69 %29.81 in10.0 miEast (80°)10.4 mphPartly Cloudy
7:54 PM84.0 °F73.0 °F69 %29.83 in10.0 miEast (80°)9.2 mphPartly Cloudy
8:54 PM84.0 °F73.9 °F72 %29.85 in10.0 miEast (90°)6.9 mphPartly Cloudy
9:54 PM82.9 °F75.0 °F77 %29.86 in10.0 miEast (90°)6.9 mphPartly Cloudy
10:54 PM82.9 °F75.0 °F77 %29.85 in10.0 miEast (90°)6.9 mphPartly Cloudy
11:54 PM82.9 °F75.0 °F77 %29.84 in10.0 miEast (90°)6.9 mphPartly Cloudy
Hourly data recorded from PGUM, located miles away from Agana, Guam







STORIES FROM OUR PARTNERS